ISS (ZARYA) 1 25544U 98067A 26237.53157716 .00007217 00000+0 13603-3 0 9997 2 25544 51.6331 316.8722 0007738 83.0953 277.0916 15.49622505582504 POISK 1 36086U 09060A 26237.53157716 .00007217 00000+0 13603-3 0 9995 2 36086 51.6331 316.8722 0007738 83.0953 277.0916 15.49622505582732 CSS (TIANHE) 1 48274U 21035A 26237.47726206 .00016428 00000+0 20691-3 0 9991 2 48274 41.4679 261.3877 0001642 252.1478 107.9182 15.59254302303981 ISS (NAUKA) 1 49044U 21066A 26237.53157716 .00007217 00000+0 13603-3 0 9993 2 49044 51.6331 316.8722 0007738 83.0953 277.0916 15.49622505582774 FREGAT DEB 1 49271U 11037PF 26237.45293196 .00016289 00000+0 24580-1 0 9999 2 49271 51.6398 153.4245 0926713 75.3644 294.8017 12.43763643233668 CSS (WENTIAN) 1 53239U 22085A 26237.47726206 .00016428 00000+0 20691-3 0 9994 2 53239 41.4679 261.3877 0001642 252.1478 107.9182 15.59254302288238 CSS (MENGTIAN) 1 54216U 22143A 26237.47726206 .00016428 00000+0 20691-3 0 9995 2 54216 41.4679 261.3877 0001642 252.1478 107.9182 15.59254302304446 HRC MONOBLOCK CAMERA 1 66052U 98067XR 26237.40050222 .00155787 00000+0 57523-3 0 9991 2 66052 51.6171 280.5166 0006532 24.9199 335.2120 15.87178178 48944 SZ-21 MODULE 1 66515U 25246C 26237.26102558 .00062066 00000+0 28332-3 0 9991 2 66515 41.4696 235.1504 0008710 160.7980 199.3196 15.82780522 44660 DUPLEX 1 66906U 98067XS 26237.20267875 .00042873 00000+0 38582-3 0 9996 2 66906 51.6254 299.6298 0003982 56.1039 304.0335 15.67762663 41465 KNACKSAT-2 1 67683U 98067XZ 26237.58828125 .00054760 00000+0 51584-3 0 9996 2 67683 51.6273 303.7315 0007306 83.9600 276.2228 15.66502972 31130 GXIBA-1 1 67685U 98067YB 26237.36147271 .00074322 00000+0 61343-3 0 9990 2 67685 51.6242 302.9424 0008063 77.9613 282.2287 15.69610374 31128 UITMSAT-2 1 67686U 98067YC 26237.20992099 .00142174 00000+0 82863-3 0 9991 2 67686 51.6243 299.6473 0008142 37.2990 322.8574 15.77440963 31158 LEOPARD 1 67687U 98067YD 26237.60326853 .00080889 00000+0 66756-3 0 9992 2 67687 51.6271 302.3408 0007750 47.2491 312.9157 15.69581943 31074 HMU-SAT2 1 67688U 98067YE 26237.37458183 .00101701 00000+0 70986-3 0 9996 2 67688 51.6256 300.7834 0007359 42.0564 318.0998 15.73469959 31079 CREW DRAGON 12 1 67796U 26031A 26237.53157716 .00007217 00000+0 13603-3 0 9994 2 67796 51.6331 316.8722 0007738 83.0953 277.0916 15.49622505583094 PROGRESS-MS 33 1 68319U 26058A 26237.53157716 .00007217 00000+0 13603-3 0 9995 2 68319 51.6331 316.8722 0007738 83.0953 277.0916 15.49622505582893 CYGNUS NG-24 1 68689U 26079A 26237.53157716 .00007217 00000+0 13603-3 0 9998 2 68689 51.6331 316.8722 0007738 83.0953 277.0916 15.49622505583210 PROGRESS-MS 34 1 68837U 26093A 26237.53157716 .00007217 00000+0 13603-3 0 9999 2 68837 51.6331 316.8722 0007738 83.0953 277.0916 15.49622505583259 TIANZHOU-10 1 69049U 26102A 26237.47726206 .00016428 00000+0 20691-3 0 9994 2 69049 41.4679 261.3877 0001642 252.1478 107.9182 15.59254302304413 SHENZHOU-23 (SZ-23) 1 69180U 26113A 26237.47726206 .00016428 00000+0 20691-3 0 9992 2 69180 41.4679 261.3877 0001642 252.1478 107.9182 15.59254302304262